New Paris, IN

4:56 PM EDT on September 27, 2016 (GMT -0400)
Goshen Municipal

Weather History for KGSH - December, 2013

Change the Weather History Date:

Thursday, December 19, 2013

  Actual Average Record
Temperature  
Mean Temperature 38 °F -  
Max Temperature 42 °F 34 °F 56 °F (1957)
Min Temperature 34 °F 22 °F -8 °F (1963)
Degree Days  
Heating Degree Days 27    
Moisture  
Dew Point 33 °F    
Average Humidity 80    
Maximum Humidity 100    
Minimum Humidity 64    
Precipitation  
Precipitation 0.00 in - - ()
Sea Level Pressure  
Sea Level Pressure 29.90 in    
Wind  
Wind Speed 9 mph (South)    
Max Wind Speed 16 mph    
Max Gust Speed -    
Visibility 7 miles    
Events Fog    
Averages and records for this station are not official NWS values.
T = Trace of Precipitation, MM = Missing Value Source: NWS Daily Summary

Daily Weather History Graph

Daily Weather History Graph

Search for Another Location

Airport or City:

Trip Planner

Search our weather history database for the weather conditions in past years. The results will help you decide how hot, cold, wet, or windy it might be!

Date:

Astronomy

Dec. 19, 2013 Rise Set
Actual Time 8:05 AM EST 5:15 PM EST
Civil Twilight 7:33 AM EST 5:47 PM EST
Nautical Twilight 6:58 AM EST 6:21 PM EST
Astronomical Twilight 6:25 AM EST 6:55 PM EST
Moon 7:42 PM EST (12/19) 9:22 AM EST (12/19)
Length of Visible Light 10h 13m
Length of Day
9h 10m
Waning Gibbous, 95% of the Moon is Illuminated
Dec 19
Waning Gibbous
Dec 25
Last Quarter
Jan 1
New
Jan 7
First Quarter
Jan 15
Full

Hourly Weather History & Observations

Time (EST) Temp. Windchill Dew Point Humidity Pressure Visibility Wind Dir Wind Speed Gust Speed Precip Events Conditions
12:53 AM 34.0 °F 25.0 °F 23.0 °F 64% 29.90 in 10.0 mi SW 12.7 mph - N/A   Clear
1:53 AM 36.0 °F 27.5 °F 25.0 °F 64% 29.88 in 10.0 mi SW 12.7 mph - N/A   Clear
2:53 AM 37.9 °F 29.2 °F 27.0 °F 65% 29.90 in 10.0 mi SW 15.0 mph - N/A   Clear
3:53 AM 37.9 °F 28.9 °F 28.0 °F 68% 29.91 in 10.0 mi SW 16.1 mph - N/A   Clear
4:53 AM 39.0 °F 30.6 °F 28.9 °F 67% 29.91 in 10.0 mi SW 15.0 mph - N/A   Clear
5:53 AM 37.9 °F 29.6 °F 30.0 °F 73% 29.91 in 10.0 mi SW 13.8 mph - N/A   Clear
6:53 AM 37.0 °F 29.3 °F 30.0 °F 76% 29.91 in 10.0 mi SW 11.5 mph - N/A   Clear
7:53 AM 35.1 °F 28.6 °F 28.9 °F 78% 29.92 in 10.0 mi SSW 8.1 mph - N/A   Clear
8:53 AM 35.1 °F 28.6 °F 30.0 °F 82% 29.94 in 10.0 mi SSW 8.1 mph - N/A   Clear
9:53 AM 37.0 °F 31.0 °F 32.0 °F 82% 29.96 in 10.0 mi SSW 8.1 mph - N/A   Clear
10:53 AM 39.9 °F 34.5 °F 33.1 °F 77% 29.97 in 10.0 mi SSW 8.1 mph - N/A   Clear
11:53 AM 39.9 °F 35.1 °F 33.1 °F 77% 29.98 in 10.0 mi SSW 6.9 mph - N/A   Clear
12:53 PM 41.0 °F 36.4 °F 34.0 °F 76% 29.96 in 10.0 mi SSW 6.9 mph - N/A   Clear
1:53 PM 42.1 °F 36.6 °F 34.0 °F 73% 29.94 in 10.0 mi SSW 9.2 mph - N/A   Clear
2:53 PM 41.0 °F 37.1 °F 34.0 °F 76% 29.94 in 10.0 mi SSW 5.8 mph - N/A   Clear
3:53 PM 41.0 °F 36.4 °F 34.0 °F 76% 29.94 in 10.0 mi South 6.9 mph - N/A   Partly Cloudy
4:53 PM 39.9 °F 36.7 °F 34.0 °F 79% 29.94 in 9.0 mi South 4.6 mph - N/A   Overcast
5:53 PM 41.0 °F 37.1 °F 34.0 °F 76% 29.92 in 10.0 mi SSE 5.8 mph - N/A   Overcast
6:53 PM 41.0 °F 36.4 °F 35.1 °F 79% 29.93 in 9.0 mi South 6.9 mph - N/A   Overcast
7:20 PM 41.0 °F 36.4 °F 35.6 °F 81% 29.91 in 8.0 mi South 6.9 mph - N/A   Overcast
7:53 PM 41.0 °F 38.0 °F 35.1 °F 79% 29.91 in 8.0 mi SSE 4.6 mph - N/A   Overcast
8:53 PM 41.0 °F 38.0 °F 35.1 °F 79% 29.90 in 7.0 mi SE 4.6 mph - N/A   Overcast
9:53 PM 39.0 °F 35.7 °F 35.1 °F 86% 29.88 in 2.5 mi SE 4.6 mph - N/A   Overcast
10:04 PM 39.2 °F 35.9 °F 35.6 °F 87% 29.86 in 1.5 mi SE 4.6 mph - N/A   Overcast
10:30 PM 39.2 °F 35.9 °F 37.4 °F 93% 29.84 in 0.8 mi SE 4.6 mph - N/A   Overcast
10:40 PM 37.4 °F - 37.4 °F 100% 29.85 in 0.8 mi Calm Calm - N/A   Overcast
10:50 PM 39.2 °F 37.0 °F 37.4 °F 93% 29.85 in 0.8 mi ESE 3.5 mph - N/A   Overcast
10:53 PM 39.0 °F 36.8 °F 37.0 °F 93% 29.87 in 0.8 mi ESE 3.5 mph - N/A   Overcast
11:03 PM 39.2 °F 35.9 °F 37.4 °F 93% 29.84 in 0.5 mi SE 4.6 mph - N/A Fog Fog
11:14 PM 39.2 °F 35.9 °F 37.4 °F 93% 29.84 in 0.8 mi SE 4.6 mph - N/A   Overcast
11:21 PM 39.2 °F 37.0 °F 37.4 °F 93% 29.84 in 1.0 mi SE 3.5 mph - N/A   Overcast
11:53 PM 41.0 °F 37.1 °F 37.9 °F 89% 29.85 in 1.2 mi South 5.8 mph - N/A   Overcast